Temperature
24 23 23 23 22 22 21 21 21 20 20 20 20 19 19 19 19 19 19 18 18 18 18 18 18 18 18 18 18 18 18 18 18 18 18 18 18 18 18 18 18 18 18
24 23 23 23 22 22 22 21 21 21 20 20 20 20 19 19 19 19 19 19 19 18 18 18 18 18 18 18 18 18 18 18 18 18 18 18 18 18 18 18 18 18 17
24 23 23 23 23 22 22 22 21 21 20 20 20 19 19 19 19 18 18 19 19 18 18 18 18 18 18 18 18 18 18 18 18 18 18 17 17 17 17 18 18 17 17
24 24 24 23 23 23 22 22 22 21 21 20 20 20 19 19 19 19 19 18 18 18 18 18 18 18 18 18 18 18 18 17 17 17 17 17 17 17 17 17 17 17 17
25 24 24 24 24 23 23 22 22 21 21 20 20 20 19 19 19 19 19 18 18 18 18 18 18 18 18 18 18 18 17 17 17 17 17 17 17 17 17 16 17 17 17
25 25 25 24 24 23 23 22 22 21 21 20 20 20 19 19 19 19 19 18 18 18 18 18 18 18 18 18 17 17 17 17 17 17 17 17 17 17 17 16 16 16 16
25 25 24 24 24 23 23 22 22 21 21 21 20 20 20 19 19 19 19 18 18 18 18 18 18 18 18 17 17 17 17 17 17 17 17 17 17 17 17 16 16 15 15
25 25 25 24 24 23 23 23 22 22 21 21 20 20 20 19 19 19 19 18 18 18 18 18 18 18 17 17 17 17 17 17 17 17 17 17 17 16 16 16 16 15 15
25 25 25 24 24 24 23 23 22 22 21 21 20 20 20 19 19 19 18 18 18 18 18 18 18 17 17 17 17 17 17 17 17 16 16 16 16 16 16 16 16 16 14
25 25 24 24 24 24 23 23 22 22 21 21 20 20 19 19 19 19 18 18 18 18 18 18 18 17 17 17 17 17 16 16 16 16 16 16 16 16 16 16 16 15 15
25 25 24 24 24 23 23 23 22 22 21 21 20 20 20 19 19 19 18 18 18 18 18 17 17 17 17 17 17 16 16 16 16 16 16 16 16 16 16 15 15 15 15
25 24 24 24 23 23 23 22 22 22 21 21 20 20 20 19 19 18 18 18 18 18 17 17 17 17 16 16 16 16 16 16 16 16 16 15 15 15 15 15 15 15 15
25 24 24 23 23 23 23 22 22 22 21 21 20 20 19 19 19 18 18 18 18 17 17 17 16 16 16 16 16 16 16 16 15 15 15 15 15 15 15 15 15 14 14
24 24 24 23 23 23 22 22 22 21 21 20 20 20 19 19 18 18 18 18 17 17 17 16 16 16 16 16 16 15 15 15 15 15 15 15 15 15 14 14 14 14 14
24 24 23 23 23 23 22 22 22 21 21 20 20 20 19 19 18 18 18 17 17 17 16 16 16 16 15 15 15 15 15 15 15 15 14 14 14 14 14 14 14 14 13
24 24 23 23 23 23 22 22 21 21 21 20 20 19 19 18 18 18 17 17 17 16 16 16 16 15 15 15 15 15 15 14 14 14 14 14 14 14 14 13 13 13 13
24 23 23 23 23 22 22 22 21 21 20 20 20 19 19 18 18 17 17 17 16 16 16 15 15 15 15 15 14 14 14 14 14 14 14 14 13 13 13 13 13 13 12
24 23 23 22 22 22 22 22 21 20 20 20 19 19 18 18 18 17 17 16 16 16 15 15 15 15 14 14 14 14 14 14 14 13 13 13 13 13 13 13 12 12 12
24 23 23 22 22 22 21 21 21 20 20 19 19 18 18 18 17 17 17 16 16 16 15 15 14 14 14 14 14 14 14 13 13 13 13 13 13 12 12 12 12 12 11
23 23 22 22 22 22 21 21 20 20 19 19 19 18 18 17 17 17 16 16 16 15 15 15 14 14 14 14 13 13 13 13 13 13 12 12 12 12 12 12 12 11 11
23 22 22 22 22 21 21 20 20 19 19 19 18 18 17 17 17 16 16 16 15 15 15 14 14 14 14 13 13 13 13 13 13 12 12 12 12 12 11 11 11 11 11
22 22 22 21 21 21 21 20 20 19 19 18 18 17 17 17 16 16 16 15 15 15 14 14 14 13 13 13 13 13 13 12 12 12 12 12 11 11 11 11 11 11 10
21 21 21 21 20 20 20 20 19 19 18 18 17 17 16 16 16 16 15 15 15 14 14 14 14 13 13 13 13 12 12 12 12 12 11 11 11 11 11 11 10 10 10
21 20 20 20 20 19 19 19 19 18 18 17 17 16 16 16 15 15 15 15 15 14 14 14 13 13 13 13 12 12 12 12 11 11 11 11 11 10 10 10 10 10 10
20 20 20 20 19 19 19 18 18 18 17 17 16 16 16 15 15 15 14 14 14 14 14 14 14 13 13 13 12 12 12 12 11 11 11 11 10 10 10 10 10 10 10
20 19 19 19 19 18 18 18 17 17 17 16 16 16 15 15 14 14 14 14 14 13 13 13 13 13 13 12 12 12 11 11 11 11 11 10 10 10 10 10 10 10 9
Wind_Speed
11 11 12 12 11 9 9 8 8 6 4 3 2 2 1 1 0 1 3 3 2 2 2 0 0 1 1 2 2 2 2 2 1 0 1 2 1 1 2 2 2 2 5
9 11 11 11 11 11 10 9 9 7 6 4 3 3 2 1 1 1 1 2 2 2 2 1 1 1 1 1 2 2 1 2 1 2 1 1 3 2 1 1 3 2 2
14 12 12 11 11 11 11 10 9 8 7 5 3 2 2 2 1 1 1 1 1 2 1 1 1 1 1 2 2 2 3 2 1 2 3 2 2 1 2 1 1 1 1
13 12 13 12 12 12 11 9 9 8 6 6 5 4 3 2 2 1 1 1 1 1 1 1 1 1 1 1 2 2 2 2 2 1 2 3 4 2 1 2 1 0 1
15 15 14 14 12 12 11 9 8 7 6 6 6 5 3 3 2 1 1 0 2 2 1 0 0 1 1 1 1 1 1 2 2 2 1 1 1 2 2 1 2 2 2
14 14 12 11 10 10 9 9 9 7 6 6 6 5 5 4 3 1 1 0 1 2 2 1 0 1 1 1 1 1 1 1 1 2 2 2 2 2 3 3 1 0 1
13 12 11 11 11 11 10 10 9 7 7 6 6 5 5 5 4 3 2 1 0 1 2 1 1 1 1 1 1 1 1 0 1 1 1 2 2 2 3 3 2 1 1
12 13 13 13 12 12 11 10 10 8 7 7 6 5 4 4 3 3 2 2 1 0 1 1 1 1 2 2 1 1 1 1 1 1 1 0 1 1 2 3 3 2 1
12 12 12 12 12 11 11 11 10 8 7 7 6 4 4 4 3 2 2 1 0 1 1 2 2 2 2 2 2 2 2 2 2 2 2 2 1 1 1 2 3 4 2
11 11 11 11 10 10 9 9 9 9 7 7 6 5 4 4 3 3 3 2 2 2 2 3 3 3 3 3 3 2 2 3 3 2 3 3 2 2 2 1 1 2 3
11 11 11 10 9 9 9 9 8 8 7 6 5 5 4 4 4 3 3 2 2 3 3 2 3 3 3 3 3 3 4 4 4 4 4 4 3 3 3 2 2 3 4
11 11 11 10 10 10 9 9 8 8 7 7 7 6 5 5 4 4 3 3 3 3 3 3 4 4 4 4 4 4 5 5 5 5 5 5 4 5 3 3 3 3 3
10 10 10 10 11 10 9 9 8 8 7 7 7 6 5 5 5 4 4 4 4 4 4 4 4 4 4 4 4 5 5 5 5 5 5 4 5 5 4 4 4 4 5
11 11 10 9 10 10 9 9 8 8 8 8 7 7 6 5 5 4 4 4 4 4 4 4 4 4 4 4 4 5 5 5 5 5 5 5 5 4 4 4 4 5 5
12 12 11 9 9 10 9 9 8 8 8 8 7 6 5 6 5 4 4 4 4 4 4 4 4 4 4 4 5 5 5 5 5 5 5 6 7 7 5 5 4 5 5
13 12 12 11 11 11 11 10 9 8 8 9 8 7 7 6 5 5 4 5 5 4 5 5 5 5 4 6 8 6 5 5 5 5 5 5 7 8 8 8 8 7 6
12 12 11 10 10 11 11 11 9 9 9 8 8 7 7 7 5 6 5 5 5 5 5 5 5 5 5 8 9 9 6 6 5 5 5 5 6 6 5 7 9 8 7
12 12 11 10 9 9 10 10 9 9 8 7 7 7 8 7 6 6 6 5 5 5 4 4 4 4 5 7 9 10 7 6 5 5 5 5 5 5 5 6 6 6 5
12 11 11 11 10 10 10 10 9 8 8 7 6 6 7 7 7 7 6 5 5 5 4 4 4 4 4 6 8 8 5 5 5 4 4 5 5 6 8 7 7 6 5
10 10 11 11 11 10 11 11 9 8 8 7 6 6 7 7 7 7 6 5 5 5 5 4 4 4 4 5 7 7 5 5 4 4 4 6 5 7 7 6 6 5 3
10 10 11 10 10 10 11 10 8 7 7 6 6 6 6 6 7 6 6 6 6 6 5 4 3 3 3 5 7 7 5 5 4 3 2 2 5 7 7 6 4 4 3
9 9 10 8 8 9 11 10 8 6 6 7 7 6 6 6 6 6 6 6 7 7 5 4 3 2 2 3 5 7 7 6 5 3 1 1 5 6 6 5 6 7 6
9 8 10 9 8 8 10 10 8 8 8 7 7 7 6 5 6 7 7 6 6 6 5 4 3 1 1 1 4 6 7 6 4 2 3 3 5 5 5 6 7 6 4
8 8 9 10 8 7 7 8 8 9 9 8 7 7 7 6 5 4 5 5 5 6 5 5 4 3 2 1 1 2 3 4 3 2 3 4 5 4 3 4 4 3 3
7 8 8 9 8 7 7 7 8 9 9 8 8 7 6 6 5 4 3 4 4 5 7 6 6 6 4 4 6 6 4 3 3 3 3 3 3 3 3 2 2 2 2
7 8 8 8 7 7 7 6 8 9 10 8 8 7 6 6 5 5 4 6 3 3 5 6 7 5 6 8 7 7 7 7 7 5 3 2 2 2 1 1 1 1 1
Wind_Direction
181 172 171 170 164 161 161 161 156 167 161 151 157 164 192 204 170 163 173 177 183 184 158 159 164 175 179 220 216 216 239 249 202 172 316 324 313 251 222 201 177 200 213
176 175 174 171 170 172 170 165 164 173 174 173 174 168 167 174 170 155 174 200 203 195 176 169 209 223 211 251 247 215 209 249 187 167 154 326 345 351 277 215 183 203 210
181 180 179 180 175 177 177 176 175 176 179 172 149 127 82 51 47 47 280 272 215 213 217 204 191 229 213 239 255 222 199 226 251 188 166 172 226 288 333 313 216 186 175
183 183 185 183 183 187 181 175 176 177 177 164 157 157 158 170 193 199 218 285 252 230 244 209 208 223 226 248 262 233 206 188 230 257 218 196 176 177 277 337 347 16 149
185 186 187 186 186 181 176 175 171 173 171 164 167 163 163 170 165 149 119 338 326 318 311 317 273 261 247 250 271 285 211 188 202 214 224 232 213 185 185 252 331 13 39
187 187 184 174 172 172 171 169 169 173 169 164 163 163 162 156 142 129 128 344 320 313 337 26 322 287 288 272 266 283 255 215 214 217 205 194 192 200 186 206 226 353 10
181 178 173 170 171 170 172 169 167 170 167 163 164 167 165 157 156 157 155 149 316 333 328 335 309 301 309 323 335 16 351 276 245 238 236 217 220 192 172 174 191 165 4
180 179 177 174 172 171 171 167 167 168 166 167 169 167 160 155 159 158 156 166 189 257 343 23 26 15 13 11 17 31 8 38 32 21 9 353 263 175 174 172 159 141 44
176 174 173 172 171 170 171 168 164 164 164 165 160 157 156 154 151 147 139 136 121 89 55 57 47 24 24 20 41 41 27 41 45 31 28 39 30 61 152 165 166 159 160
164 165 166 169 171 170 164 156 158 162 161 162 164 159 153 151 142 128 117 103 84 69 69 60 53 44 36 37 51 48 34 52 44 53 51 39 27 42 54 107 141 151 158
164 163 165 165 159 152 149 150 152 151 152 153 146 140 136 133 125 118 113 106 84 79 79 74 68 57 46 42 51 52 49 56 45 42 55 44 40 49 46 64 82 96 119
158 157 157 151 148 148 148 150 150 150 152 148 139 136 128 122 120 116 105 95 86 77 78 77 70 65 57 49 57 61 55 59 54 44 50 41 52 52 48 68 81 91 102
144 143 143 147 152 153 153 153 152 151 145 139 136 133 129 126 126 121 107 97 91 80 74 75 73 68 62 58 61 69 68 68 63 57 56 44 57 56 53 66 77 85 96
148 149 150 153 157 155 155 154 150 147 144 139 139 139 140 135 128 121 112 103 97 87 79 79 75 74 71 69 72 75 71 67 64 64 62 53 57 61 68 76 79 92 95
155 157 157 159 158 154 153 149 147 148 148 143 143 147 138 129 123 118 112 101 96 95 86 76 64 63 72 75 86 84 82 74 68 59 59 62 63 63 72 91 96 100 103
162 159 158 159 160 157 154 152 151 149 145 147 150 148 138 134 131 127 117 103 91 84 79 73 71 64 68 80 87 94 83 76 78 72 56 58 51 53 62 78 88 103 121
161 158 159 161 160 158 154 154 152 146 144 148 151 150 146 144 145 139 123 116 106 96 87 80 78 68 60 79 89 93 91 82 78 75 64 60 51 52 63 69 70 70 86
158 158 158 157 157 150 144 141 137 140 144 146 150 154 152 150 143 133 130 123 116 109 101 89 82 75 62 77 90 94 87 80 72 72 76 76 52 58 77 79 70 61 55
163 159 159 154 147 144 143 136 135 138 141 146 150 154 154 151 149 145 142 138 126 114 108 103 93 86 62 78 99 101 93 82 66 61 64 76 69 62 79 85 81 65 45
150 151 147 141 140 143 139 136 141 145 154 158 155 153 153 152 154 154 148 140 131 127 120 103 96 97 84 89 107 111 109 96 79 59 48 56 72 69 77 92 98 90 70
139 144 142 142 146 143 139 141 146 160 162 150 143 142 144 147 149 145 140 137 133 127 121 113 98 95 98 99 110 117 122 125 111 92 59 38 66 69 72 83 99 117 112
128 132 135 135 138 141 142 146 157 162 149 140 137 139 141 144 141 139 137 139 139 136 134 124 106 75 79 103 116 120 122 128 122 125 125 90 75 69 67 71 82 87 86
134 135 138 135 137 145 150 154 163 157 147 139 139 141 138 133 140 144 146 146 148 150 152 148 146 138 71 97 121 123 126 124 119 135 131 98 77 67 62 64 74 78 83
140 140 141 144 151 157 159 162 159 154 149 148 147 145 142 138 137 141 149 154 161 161 159 162 168 168 156 158 140 128 125 114 100 94 91 75 67 67 57 50 62 74 101
150 145 150 152 156 156 157 160 156 151 149 151 151 148 146 146 138 127 132 160 172 178 173 180 176 171 180 205 176 156 156 153 147 119 79 65 61 57 44 44 47 60 83
143 143 149 150 152 154 157 161 160 156 154 156 157 157 155 150 144 134 93 51 78 130 166 172 168 175 176 166 164 163 157 149 138 115 102 109 125 144 149 135 83 58 91
Height
1538 1541 1542 1544 1546 1547 1548 1549 1550 1551 1552 1552 1553 1553 1553 1553 1553 1553 1553 1553 1553 1552 1552 1551 1551 1550 1550 1551 1551 1551 1551 1550 1550 1550 1550 1550 1550 1550 1551 1551 1551 1551 1551
1537 1539 1541 1542 1544 1546 1547 1548 1549 1550 1551 1552 1552 1552 1552 1552 1552 1552 1552 1552 1552 1551 1551 1550 1549 1549 1549 1549 1549 1548 1548 1548 1548 1548 1548 1548 1549 1548 1548 1548 1548 1548 1549
1533 1536 1538 1540 1542 1543 1545 1546 1548 1548 1549 1550 1551 1551 1552 1551 1551 1551 1551 1551 1550 1550 1550 1549 1548 1548 1547 1547 1546 1546 1545 1545 1545 1546 1546 1546 1545 1545 1546 1546 1546 1546 1546
1531 1533 1535 1537 1539 1541 1543 1545 1546 1547 1548 1549 1550 1550 1550 1550 1550 1550 1550 1550 1549 1549 1548 1548 1547 1546 1546 1545 1544 1544 1543 1543 1542 1543 1543 1544 1543 1544 1543 1544 1544 1544 1544
1527 1530 1532 1534 1537 1540 1542 1544 1545 1546 1547 1548 1549 1549 1549 1549 1549 1549 1549 1549 1548 1548 1547 1546 1545 1545 1544 1543 1542 1541 1541 1540 1540 1540 1540 1540 1540 1541 1541 1541 1542 1542 1542
1525 1527 1530 1533 1536 1538 1541 1542 1544 1545 1546 1547 1548 1548 1548 1549 1549 1549 1548 1548 1547 1547 1546 1545 1544 1543 1542 1541 1540 1539 1539 1538 1538 1537 1537 1537 1537 1537 1538 1538 1538 1539 1540
1522 1525 1528 1531 1534 1536 1538 1540 1542 1543 1545 1546 1546 1547 1548 1548 1548 1547 1547 1547 1547 1546 1546 1545 1543 1542 1541 1540 1539 1538 1536 1536 1536 1535 1535 1535 1535 1535 1535 1535 1536 1536 1538
1519 1522 1525 1528 1531 1534 1536 1538 1540 1542 1544 1545 1545 1546 1547 1547 1547 1547 1546 1546 1546 1545 1544 1543 1542 1541 1540 1539 1538 1536 1535 1535 1534 1533 1533 1532 1532 1533 1533 1533 1534 1535 1536
1517 1520 1523 1526 1529 1532 1534 1537 1539 1541 1542 1543 1544 1545 1546 1546 1546 1546 1546 1545 1545 1544 1544 1543 1541 1540 1539 1538 1537 1535 1534 1533 1533 1532 1531 1531 1531 1531 1531 1531 1532 1533 1534
1515 1518 1521 1525 1528 1531 1534 1536 1538 1540 1541 1543 1544 1544 1545 1545 1545 1545 1545 1544 1544 1544 1543 1542 1541 1539 1538 1537 1536 1534 1533 1532 1532 1531 1530 1530 1529 1529 1529 1530 1530 1531 1532
1512 1516 1520 1524 1527 1530 1533 1535 1537 1539 1541 1542 1543 1544 1544 1544 1544 1544 1544 1544 1543 1543 1542 1541 1540 1539 1537 1536 1535 1534 1533 1532 1531 1530 1530 1529 1529 1529 1529 1528 1529 1530 1531
1511 1515 1519 1522 1526 1529 1532 1534 1537 1538 1540 1541 1542 1543 1543 1544 1544 1543 1543 1543 1543 1542 1541 1540 1539 1538 1537 1536 1535 1534 1533 1532 1531 1530 1530 1529 1529 1528 1528 1528 1529 1529 1530
1511 1515 1518 1521 1524 1528 1530 1533 1535 1537 1539 1541 1542 1542 1543 1543 1543 1543 1543 1542 1542 1541 1540 1539 1538 1538 1537 1536 1535 1534 1533 1532 1531 1531 1530 1530 1529 1529 1529 1528 1529 1529 1530
1511 1514 1517 1520 1523 1526 1529 1532 1534 1536 1538 1540 1541 1542 1542 1542 1542 1542 1542 1542 1541 1541 1540 1539 1539 1538 1537 1537 1536 1535 1534 1533 1532 1531 1531 1530 1530 1530 1530 1529 1529 1530 1530
1509 1512 1515 1518 1522 1525 1528 1531 1533 1535 1537 1539 1540 1541 1541 1541 1542 1542 1542 1542 1541 1541 1540 1540 1539 1539 1538 1537 1536 1535 1534 1533 1532 1532 1531 1531 1531 1531 1531 1531 1531 1531 1531
1508 1511 1514 1517 1520 1523 1526 1529 1531 1534 1536 1537 1539 1539 1540 1541 1541 1542 1542 1541 1541 1541 1541 1540 1540 1539 1538 1538 1537 1536 1535 1534 1533 1533 1532 1532 1532 1532 1532 1532 1532 1532 1532
1505 1509 1513 1515 1518 1521 1524 1526 1529 1532 1534 1536 1537 1538 1539 1540 1541 1541 1541 1541 1540 1540 1540 1540 1540 1539 1539 1538 1538 1537 1537 1536 1535 1535 1534 1534 1534 1534 1533 1533 1533 1533 1533
1503 1506 1510 1514 1517 1520 1522 1525 1528 1530 1532 1534 1535 1537 1538 1538 1539 1540 1540 1540 1540 1540 1540 1540 1540 1540 1539 1539 1539 1538 1538 1537 1536 1536 1536 1535 1535 1535 1535 1534 1534 1534 1534
1501 1504 1509 1512 1515 1518 1521 1524 1526 1529 1531 1532 1534 1535 1536 1537 1538 1539 1539 1540 1540 1540 1540 1540 1540 1540 1540 1540 1540 1539 1539 1538 1537 1537 1537 1537 1536 1536 1536 1536 1535 1535 1536
1500 1504 1507 1511 1514 1517 1520 1522 1525 1527 1529 1530 1532 1533 1535 1536 1537 1537 1538 1539 1540 1540 1540 1540 1541 1541 1540 1540 1540 1540 1540 1539 1538 1538 1538 1538 1537 1537 1537 1537 1537 1537 1537
1500 1503 1506 1509 1512 1515 1518 1521 1523 1525 1527 1529 1530 1531 1533 1534 1535 1536 1537 1538 1539 1539 1540 1540 1541 1541 1541 1541 1541 1541 1540 1540 1539 1539 1538 1538 1539 1539 1538 1538 1538 1538 1538
1498 1501 1504 1507 1510 1514 1517 1519 1521 1524 1526 1527 1528 1530 1531 1532 1534 1535 1536 1537 1538 1538 1539 1540 1540 1540 1541 1541 1541 1541 1541 1541 1540 1540 1540 1539 1540 1540 1539 1539 1539 1540 1540
1497 1500 1503 1506 1509 1512 1515 1517 1519 1521 1524 1525 1526 1528 1529 1531 1532 1533 1534 1536 1536 1537 1538 1539 1539 1540 1540 1540 1541 1541 1541 1541 1541 1541 1541 1541 1541 1540 1540 1540 1541 1541 1541
1496 1498 1501 1504 1507 1510 1513 1515 1517 1519 1521 1522 1524 1526 1527 1528 1530 1532 1533 1534 1534 1535 1536 1537 1538 1539 1539 1539 1540 1540 1541 1541 1541 1541 1541 1542 1542 1542 1541 1541 1541 1542 1542
1494 1496 1499 1502 1505 1508 1511 1513 1515 1517 1518 1520 1522 1523 1525 1526 1528 1529 1531 1532 1533 1534 1535 1536 1537 1537 1538 1538 1539 1539 1540 1540 1541 1541 1541 1541 1542 1542 1542 1542 1542 1542 1542
1492 1495 1498 1501 1503 1506 1508 1510 1513 1514 1516 1518 1519 1521 1523 1524 1526 1527 1528 1530 1531 1532 1534 1535 1536 1536 1537 1537 1538 1538 1539 1540 1540 1541 1540 1541 1541 1541 1542 1542 1542 1542 1542